{"data":{"norad_id":64338,"intl_designator":"2025-124X","name":"STARLINK-34218","alt_names":[],"object_type":"PAYLOAD","status":"ACTIVE","operator":null,"country":"US","launch_date":"2025-06-10","launch_site_code":"AFETR","launch_vehicle":null,"mission":null,"orbit_class":"UNKNOWN","rcs_meters":null,"size_class":null,"mass_kg":null,"dimensions":null,"purposes":["comms"],"wikipedia_slug":null,"has_3d_model":false,"image_url":null,"decayed_at":null,"tle_current":{"epoch":"2026-09-20T22:37:26.287968Z","epoch_age_seconds":96019,"freshness":"FRESH","line1":"1 64338U 25124X   26263.94266537  .00014017  00000+0  51751-3 0  9993","line2":"2 64338  43.0001  95.4040 0001304 276.2631  83.8072 15.27605619 71683","mean_motion":15.27605619,"eccentricity":0.0001304,"inclination_deg":43.0001,"raan_deg":95.404,"arg_perigee_deg":276.2631,"mean_anomaly_deg":83.8072,"bstar":0.00051751,"rev_number":7168,"period_min":94.265167795249,"perigee_km":482.07769594562,"apogee_km":483.86707327312,"semimajor_km":6861.1093846094,"source":"CELESTRAK","updated_at":"2026-09-21T09:00:35.315007Z"}}}